| time (UTC) | temp F | wind direction | speed MPH | gust MPH | rain 1hr in | rain 24hr in | rain mn in | humidity % | barometer mb |
| 20260903211504 | 91 | 178 | 2.0 | 7.0 | 0.00 | 1.51 | 0.27 | 65 | 1014.6 |
| 20260903211025 | 91 | 164 | 3.0 | 6.0 | 0.00 | 1.51 | 0.27 | 65 | 1014.6 |
| 20260903210504 | 91 | 185 | 3.0 | 6.0 | 0.00 | 1.52 | 0.27 | 66 | 1014.8 |
| 20260903210004 | 91 | 206 | 2.0 | 6.0 | 0.00 | 1.54 | 0.27 | 69 | 1014.7 |
| 20260903205504 | 90 | 186 | 1.0 | 5.0 | 0.00 | 1.56 | 0.27 | 68 | 1014.8 |
| 20260903205004 | 90 | 174 | 1.0 | 5.0 | 0.00 | 1.60 | 0.27 | 70 | 1014.6 |
| 20260903204504 | 90 | 176 | 2.0 | 5.0 | 0.00 | 1.78 | 0.27 | 70 | 1014.6 |
| 20260903204004 | 90 | 176 | 2.0 | 6.0 | 0.00 | 1.89 | 0.27 | 69 | 1014.7 |
| 20260903203504 | 91 | 171 | 3.0 | 6.0 | 0.00 | 1.94 | 0.27 | 70 | 1014.7 |
| 20260903203004 | 92 | 165 | 2.0 | 6.0 | 0.00 | 2.04 | 0.27 | 69 | 1014.7 |
| 20260903202525 | 92 | 162 | 1.0 | 5.0 | 0.00 | 2.13 | 0.27 | 67 | 1014.7 |
| 20260903202025 | 92 | 194 | 1.0 | 5.0 | 0.00 | 2.13 | 0.27 | 68 | 1014.7 |
| 20260903201525 | 91 | 208 | 2.0 | 5.0 | 0.00 | 2.13 | 0.27 | 67 | 1014.7 |
| 20260903201025 | 91 | 225 | 2.0 | 5.0 | 0.00 | 2.13 | 0.27 | 69 | 1014.9 |
| 20260903200525 | 90 | 192 | 2.0 | 5.0 | 0.00 | 2.13 | 0.27 | 68 | 1014.9 |
| 20260903200004 | 89 | 162 | 3.0 | 6.0 | 0.00 | 2.14 | 0.27 | 72 | 1015.1 |
| 20260903195504 | 89 | 164 | 3.0 | 7.0 | 0.00 | 2.14 | 0.27 | 72 | 1015.2 |
| 20260903195004 | 90 | 189 | 3.0 | 7.0 | 0.00 | 2.14 | 0.27 | 72 | 1015.4 |
| 20260903194504 | 90 | 254 | 1.0 | 4.0 | 0.00 | 2.14 | 0.27 | 70 | 1015.4 |
| 20260903194003 | 90 | 280 | 1.0 | 4.0 | 0.00 | 2.14 | 0.27 | 69 | 1015.4 |
| 20260903193504 | 90 | 230 | 3.0 | 7.0 | 0.00 | 2.14 | 0.27 | 68 | 1015.6 |
| 20260903193004 | 90 | 219 | 3.0 | 7.0 | 0.00 | 2.14 | 0.27 | 68 | 1015.7 |
| 20260903192504 | 90 | 273 | 2.0 | 5.0 | 0.00 | 2.14 | 0.27 | 68 | 1015.8 |
| 20260903192004 | 90 | 176 | 2.0 | 6.0 | 0.00 | 2.14 | 0.27 | 70 | 1015.8 |
| 20260903191504 | 90 | 170 | 3.0 | 7.0 | 0.00 | 2.15 | 0.27 | 72 | 1015.8 |
| 20260903191004 | 90 | 171 | 2.0 | 7.0 | 0.00 | 2.15 | 0.27 | 72 | 1015.9 |
| 20260903190504 | 90 | 186 | 2.0 | 5.0 | 0.00 | 2.15 | 0.27 | 75 | 1015.9 |
| 20260903190004 | 89 | 227 | 2.0 | 6.0 | 0.00 | 2.15 | 0.27 | 74 | 1016.0 |
| 20260903185504 | 89 | 241 | 2.0 | 6.0 | 0.00 | 2.15 | 0.27 | 72 | 1015.9 |
| 20260903185004 | 88 | 213 | 1.0 | 5.0 | 0.00 | 2.15 | 0.27 | 73 | 1015.9 |
| 20260903184504 | 88 | 185 | 0.0 | 3.0 | 0.00 | 2.16 | 0.27 | 75 | 1015.8 |
| 20260903184004 | 88 | 324 | 1.0 | 6.0 | 0.00 | 2.16 | 0.27 | 74 | 1015.7 |
| 20260903183504 | 87 | 305 | 2.0 | 6.0 | 0.00 | 2.17 | 0.27 | 73 | 1015.5 |
| 20260903183004 | 88 | 261 | 2.0 | 5.0 | 0.00 | 2.17 | 0.27 | 73 | 1015.5 |
| 20260903182525 | 88 | 209 | 2.0 | 7.0 | 0.00 | 2.18 | 0.27 | 75 | 1015.4 |
| 20260903182004 | 88 | 205 | 2.0 | 7.0 | 0.00 | 2.19 | 0.27 | 75 | 1015.5 |
| 20260903181525 | 87 | 249 | 1.0 | 4.0 | 0.00 | 2.19 | 0.27 | 75 | 1015.6 |
| 20260903181025 | 87 | 256 | 2.0 | 4.0 | 0.00 | 2.20 | 0.27 | 76 | 1015.9 |
| 20260903180504 | 87 | 230 | 1.0 | 4.0 | 0.00 | 2.20 | 0.27 | 75 | 1016.1 |
| 20260903180004 | 87 | 212 | 1.0 | 4.0 | 0.00 | 2.20 | 0.27 | 74 | 1016.4 |
| 20260903175504 | 87 | 262 | 2.0 | 4.0 | 0.00 | 2.20 | 0.27 | 73 | 1016.4 |
| 20260903175004 | 88 | 251 | 2.0 | 5.0 | 0.00 | 2.20 | 0.27 | 73 | 1016.7 |
| 20260903174504 | 88 | 224 | 2.0 | 5.0 | 0.00 | 2.20 | 0.27 | 73 | 1016.7 |
| 20260903174004 | 87 | 237 | 1.0 | 3.0 | 0.00 | 2.21 | 0.27 | 75 | 1016.8 |
| 20260903173504 | 86 | 235 | 1.0 | 3.0 | 0.00 | 2.21 | 0.27 | 75 | 1016.9 |
| 20260903173004 | 86 | 263 | 2.0 | 4.0 | 0.00 | 2.21 | 0.27 | 75 | 1016.9 |
| 20260903172504 | 86 | 315 | 2.0 | 4.0 | 0.00 | 2.21 | 0.27 | 74 | 1017.0 |
| 20260903172004 | 86 | 288 | 1.0 | 3.0 | 0.00 | 2.22 | 0.27 | 74 | 1017.0 |
| 20260903171504 | 85 | 327 | 1.0 | 4.0 | 0.00 | 2.22 | 0.27 | 74 | 1017.2 |
| 20260903171004 | 85 | 355 | 1.0 | 4.0 | 0.00 | 2.23 | 0.27 | 74 | 1017.2 |
| 20260903170504 | 85 | 332 | 1.0 | 4.0 | 0.00 | 2.23 | 0.27 | 75 | 1017.2 |
| 20260903170025 | 85 | 231 | 1.0 | 2.0 | 0.00 | 2.24 | 0.27 | 75 | 1017.3 |
| 20260903165504 | 85 | 250 | 1.0 | 3.0 | 0.00 | 2.24 | 0.27 | 75 | 1017.3 |
| 20260903165025 | 86 | 241 | 1.0 | 3.0 | 0.00 | 2.25 | 0.27 | 74 | 1017.4 |
| 20260903164504 | 85 | 273 | 2.0 | 6.0 | 0.00 | 2.25 | 0.27 | 75 | 1017.4 |
| 20260903164004 | 85 | 274 | 2.0 | 6.0 | 0.00 | 2.26 | 0.27 | 75 | 1017.4 |
| 20260903163525 | 85 | 272 | 2.0 | 7.0 | 0.00 | 2.26 | 0.27 | 74 | 1017.3 |
| 20260903163004 | 84 | 289 | 2.0 | 7.0 | 0.00 | 2.27 | 0.27 | 74 | 1017.3 |
| 20260903162504 | 84 | 299 | 2.0 | 6.0 | 0.00 | 2.28 | 0.27 | 72 | 1017.4 |
| 20260903162004 | 83 | 300 | 2.0 | 6.0 | 0.00 | 2.28 | 0.27 | 70 | 1017.4 |
| 20260903161504 | 83 | 289 | 2.0 | 6.0 | 0.00 | 2.30 | 0.27 | 67 | 1017.4 |
| 20260903161004 | 83 | 289 | 1.0 | 4.0 | 0.00 | 2.31 | 0.27 | 65 | 1017.3 |
| 20260903160504 | 82 | 298 | 2.0 | 4.0 | 0.00 | 2.32 | 0.27 | 67 | 1017.4 |
| 20260903160004 | 82 | 257 | 2.0 | 4.0 | 0.00 | 2.33 | 0.27 | 68 | 1017.4 |
| 20260903155504 | 82 | 252 | 2.0 | 4.0 | 0.00 | 2.34 | 0.27 | 68 | 1017.4 |
| 20260903155004 | 82 | 255 | 2.0 | 3.0 | 0.00 | 2.35 | 0.27 | 67 | 1017.4 |
| 20260903154503 | 81 | 266 | 1.0 | 3.0 | 0.00 | 2.36 | 0.27 | 68 | 1017.4 |
| 20260903154003 | 81 | 277 | 1.0 | 3.0 | 0.00 | 2.38 | 0.27 | 66 | 1017.4 |
| 20260903153524 | 81 | 284 | 1.0 | 3.0 | 0.00 | 2.39 | 0.27 | 65 | 1017.3 |
| 20260903153004 | 81 | 285 | 2.0 | 3.0 | 0.00 | 2.41 | 0.27 | 57 | 1017.3 |
| 20260903152524 | 80 | 284 | 1.0 | 3.0 | 0.00 | 2.42 | 0.27 | 56 | 1017.1 |
| 20260903152025 | 80 | 3 | 1.0 | 2.0 | 0.00 | 2.43 | 0.27 | 57 | 1017.1 |
| 20260903151503 | 80 | 68 | 1.0 | 2.0 | 0.00 | 2.44 | 0.27 | 45 | 1017.0 |
| 20260903151003 | 79 | 62 | 1.0 | 3.0 | 0.00 | 2.46 | 0.27 | 45 | 1017.0 |
| 20260903150503 | 79 | 122 | 1.0 | 3.0 | 0.00 | 2.47 | 0.27 | 42 | 1017.0 |
| 20260903150003 | 78 | 170 | 1.0 | 2.0 | 0.00 | 2.48 | 0.27 | 41 | 1017.1 |
| 20260903145504 | 77 | 237 | 0.0 | 2.0 | 0.02 | 2.50 | 0.27 | 41 | 1017.1 |
| 20260903145004 | 77 | 340 | 0.0 | 2.0 | 0.12 | 2.51 | 0.27 | 41 | 1017.1 |
| 20260903144504 | 76 | 60 | 1.0 | 2.0 | 0.27 | 2.52 | 0.27 | 41 | 1017.1 |
| 20260903144004 | 76 | 104 | 1.0 | 2.0 | 0.27 | 2.53 | 0.27 | 41 | 1017.1 |
| 20260903143504 | 76 | 79 | 1.0 | 2.0 | 0.27 | 2.55 | 0.27 | 41 | 1017.1 |
| 20260903143004 | 76 | 19 | 1.0 | 2.0 | 0.27 | 2.56 | 0.27 | 42 | 1017.0 |
| 20260903142503 | 75 | 26 | 1.0 | 3.0 | 0.27 | 2.57 | 0.27 | 41 | 1017.0 |
| 20260903142025 | 75 | 16 | 1.0 | 3.0 | 0.27 | 2.59 | 0.27 | 41 | 1017.0 |
| 20260903141503 | 75 | 356 | 2.0 | 4.0 | 0.27 | 2.59 | 0.27 | 41 | 1017.1 |
| 20260903141024 | 75 | 349 | 3.0 | 8.0 | 0.27 | 2.61 | 0.27 | 41 | 1017.1 |
| 20260903140504 | 75 | 336 | 4.0 | 10.0 | 0.27 | 2.62 | 0.27 | 42 | 1017.2 |
| 20260903140003 | 75 | 325 | 5.0 | 10.0 | 0.27 | 2.64 | 0.27 | 42 | 1017.4 |
| 20260903135504 | 77 | 313 | 3.0 | 10.0 | 0.25 | 2.63 | 0.25 | 41 | 1017.5 |
| 20260903135025 | 79 | 308 | 1.0 | 5.0 | 0.15 | 2.55 | 0.18 | 41 | 1017.6 |
| 20260903134503 | 80 | 339 | 1.0 | 3.0 | 0.00 | 2.41 | 0.00 | 41 | 1017.4 |
| 20260903134024 | 80 | 337 | 1.0 | 3.0 | 0.00 | 2.42 | 0.00 | 41 | 1017.2 |
| 20260903133504 | 80 | 342 | 2.0 | 3.0 | 0.00 | 2.44 | 0.00 | 41 | 1017.2 |
| 20260903133004 | 80 | 358 | 1.0 | 3.0 | 0.00 | 2.46 | 0.00 | 41 | 1017.3 |
| 20260903132524 | 80 | 21 | 0.0 | 2.0 | 0.00 | 2.48 | 0.00 | 41 | 1017.3 |
| 20260903132004 | 80 | 21 | 0.0 | 1.0 | 0.00 | 2.50 | 0.00 | 41 | 1017.1 |
| 20260903131503 | 79 | 21 | 0.0 | 1.0 | 0.00 | 2.52 | 0.00 | 41 | 1016.9 |
| 20260903131003 | 79 | 21 | 0.0 | 1.0 | 0.00 | 2.54 | 0.00 | 41 | 1017.1 |
| 20260903130503 | 79 | 21 | 0.0 | 2.0 | 0.00 | 2.56 | 0.00 | 41 | 1017.1 |
| 20260903130004 | 79 | 21 | 1.0 | 2.0 | 0.00 | 2.58 | 0.00 | 41 | 1017.1 |
| 20260903125503 | 78 | 21 | 1.0 | 1.0 | 0.00 | 2.59 | 0.00 | 41 | 1016.9 |
| 20260903125003 | 78 | 21 | 0.0 | 1.0 | 0.00 | 2.61 | 0.00 | 42 | 1016.8 |
| 20260903124503 | 78 | 21 | 0.0 | 1.0 | 0.00 | 2.63 | 0.00 | 42 | 1016.8 |
| 20260903124003 | 78 | 21 | 0.0 | 1.0 | 0.00 | 2.65 | 0.00 | 42 | 1016.8 |
| 20260903123525 | 78 | 21 | 0.0 | 1.0 | 0.00 | 2.66 | 0.00 | 42 | 1016.9 |
| 20260903123004 | 78 | 21 | 0.0 | 1.0 | 0.00 | 2.68 | 0.00 | 42 | 1016.9 |
| 20260903122503 | 78 | 21 | 0.0 | 1.0 | 0.00 | 2.70 | 0.00 | 42 | 1016.9 |
| 20260903122003 | 78 | 21 | 0.0 | 1.0 | 0.00 | 2.72 | 0.00 | 42 | 1016.8 |
| 20260903121503 | 77 | 21 | 0.0 | 1.0 | 0.00 | 2.74 | 0.00 | 42 | 1016.7 |
| 20260903121003 | 77 | 21 | 0.0 | 1.0 | 0.00 | 2.76 | 0.00 | 42 | 1016.5 |
| 20260903120524 | 77 | 21 | 0.0 | 1.0 | 0.00 | 2.78 | 0.00 | 42 | 1016.3 |
| 20260903120003 | 77 | 21 | 1.0 | 1.0 | 0.00 | 2.79 | 0.00 | 42 | 1016.3 |
| 20260903115524 | 77 | 21 | 0.0 | 1.0 | 0.00 | 2.81 | 0.00 | 42 | 1016.3 |
| 20260903115003 | 77 | 21 | 0.0 | 1.0 | 0.00 | 2.82 | 0.00 | 42 | 1016.2 |
| 20260903114503 | 77 | 21 | 0.0 | 1.0 | 0.00 | 2.83 | 0.00 | 42 | 1016.0 |
| 20260903114003 | 77 | 0 | 0.0 | 0.0 | 0.00 | 2.85 | 0.00 | 42 | 1016.1 |
| 20260903113503 | 77 | 0 | 0.0 | 0.0 | 0.00 | 2.86 | 0.00 | 42 | 1016.1 |
| 20260903113003 | 77 | 0 | 0.0 | 0.0 | 0.00 | 2.88 | 0.00 | 42 | 1016.0 |
| 20260903112503 | 78 | 0 | 0.0 | 0.0 | 0.00 | 2.89 | 0.00 | 42 | 1016.0 |
| 20260903112004 | 78 | 0 | 0.0 | 0.0 | 0.00 | 2.91 | 0.00 | 42 | 1016.0 |
| 20260903111503 | 77 | 21 | 0.0 | 1.0 | 0.00 | 2.92 | 0.00 | 42 | 1015.8 |
| 20260903111003 | 77 | 21 | 0.0 | 1.0 | 0.00 | 2.93 | 0.00 | 42 | 1015.9 |
| 20260903110503 | 77 | 0 | 0.0 | 0.0 | 0.00 | 2.94 | 0.00 | 42 | 1015.9 |
| 20260903110024 | 77 | 21 | 0.0 | 1.0 | 0.00 | 2.96 | 0.00 | 42 | 1016.0 |
| 20260903105524 | 77 | 21 | 0.0 | 1.0 | 0.00 | 2.98 | 0.00 | 42 | 1015.9 |
| 20260903105003 | 77 | 21 | 0.0 | 1.0 | 0.00 | 2.99 | 0.00 | 42 | 1015.8 |
| 20260903104524 | 78 | 21 | 0.0 | 2.0 | 0.00 | 3.01 | 0.00 | 42 | 1015.9 |
| 20260903104004 | 78 | 21 | 0.0 | 2.0 | 0.00 | 3.03 | 0.00 | 42 | 1015.8 |
| 20260903103524 | 78 | 21 | 0.0 | 1.0 | 0.00 | 3.04 | 0.00 | 42 | 1015.8 |
| 20260903103003 | 78 | 0 | 0.0 | 0.0 | 0.00 | 3.07 | 0.00 | 42 | 1015.9 |
| 20260903102503 | 78 | 0 | 0.0 | 0.0 | 0.00 | 3.10 | 0.00 | 42 | 1015.8 |
| 20260903102003 | 78 | 0 | 0.0 | 0.0 | 0.00 | 3.13 | 0.00 | 42 | 1016.0 |
| 20260903101504 | 78 | 0 | 0.0 | 0.0 | 0.00 | 3.15 | 0.00 | 42 | 1015.9 |
| 20260903101003 | 78 | 21 | 0.0 | 2.0 | 0.00 | 3.17 | 0.00 | 42 | 1016.0 |
| 20260903100503 | 78 | 45 | 1.0 | 2.0 | 0.00 | 3.18 | 0.00 | 42 | 1015.9 |
| 20260903100003 | 78 | 68 | 1.0 | 2.0 | 0.00 | 3.20 | 0.00 | 42 | 1015.8 |
| 20260903095524 | 78 | 68 | 0.0 | 1.0 | 0.00 | 3.22 | 0.00 | 42 | 1015.7 |
| 20260903095003 | 78 | 68 | 0.0 | 1.0 | 0.00 | 3.25 | 0.00 | 42 | 1015.7 |
| 20260903094503 | 78 | 68 | 0.0 | 1.0 | 0.00 | 3.28 | 0.00 | 42 | 1015.7 |
| 20260903094003 | 78 | 0 | 0.0 | 0.0 | 0.00 | 3.29 | 0.00 | 42 | 1015.6 |
| 20260903093503 | 78 | 68 | 0.0 | 1.0 | 0.00 | 3.29 | 0.00 | 42 | 1015.6 |
| 20260903093003 | 78 | 77 | 0.0 | 1.0 | 0.00 | 3.30 | 0.00 | 42 | 1015.7 |
| 20260903092503 | 78 | 78 | 0.0 | 1.0 | 0.00 | 3.31 | 0.00 | 42 | 1015.6 |
| 20260903092003 | 78 | 84 | 0.0 | 1.0 | 0.00 | 3.32 | 0.00 | 42 | 1015.7 |
| 20260903091503 | 78 | 84 | 0.0 | 1.0 | 0.00 | 3.33 | 0.00 | 42 | 1015.5 |
| 20260903091003 | 78 | 86 | 0.0 | 1.0 | 0.00 | 3.34 | 0.00 | 42 | 1015.5 |
| 20260903090503 | 78 | 96 | 0.0 | 2.0 | 0.00 | 3.35 | 0.00 | 42 | 1015.5 |
| 20260903090003 | 78 | 133 | 0.0 | 2.0 | 0.00 | 3.35 | 0.00 | 42 | 1015.5 |
| 20260903085503 | 78 | 146 | 1.0 | 2.0 | 0.00 | 3.36 | 0.00 | 42 | 1015.4 |
| 20260903085003 | 78 | 164 | 1.0 | 2.0 | 0.00 | 3.36 | 0.00 | 42 | 1015.3 |
| 20260903084503 | 78 | 177 | 1.0 | 3.0 | 0.00 | 3.36 | 0.00 | 42 | 1015.3 |
| 20260903084024 | 78 | 168 | 1.0 | 3.0 | 0.00 | 3.36 | 0.00 | 42 | 1015.4 |
| 20260903083503 | 78 | 170 | 1.0 | 4.0 | 0.00 | 3.36 | 0.00 | 42 | 1015.5 |
| 20260903083003 | 78 | 169 | 2.0 | 4.0 | 0.00 | 3.36 | 0.00 | 42 | 1015.4 |
| 20260903082503 | 79 | 166 | 1.0 | 4.0 | 0.00 | 3.36 | 0.00 | 42 | 1015.4 |
| 20260903082003 | 78 | 173 | 1.0 | 3.0 | 0.00 | 3.36 | 0.00 | 42 | 1015.4 |
| 20260903081503 | 78 | 178 | 1.0 | 3.0 | 0.00 | 3.36 | 0.00 | 42 | 1015.3 |
| 20260903081003 | 78 | 192 | 1.0 | 3.0 | 0.00 | 3.37 | 0.00 | 42 | 1015.3 |
| 20260903080524 | 78 | 228 | 1.0 | 3.0 | 0.00 | 3.37 | 0.00 | 42 | 1015.3 |
| 20260903080003 | 78 | 226 | 1.0 | 3.0 | 0.00 | 3.37 | 0.00 | 42 | 1015.3 |
| 20260903075503 | 78 | 225 | 1.0 | 3.0 | 0.00 | 3.38 | 0.00 | 42 | 1015.4 |
| 20260903075003 | 78 | 234 | 1.0 | 2.0 | 0.00 | 3.38 | 0.00 | 42 | 1015.3 |
| 20260903074503 | 78 | 226 | 1.0 | 2.0 | 0.00 | 3.39 | 0.00 | 42 | 1015.4 |
| 20260903074003 | 78 | 210 | 1.0 | 2.0 | 0.00 | 3.39 | 0.00 | 42 | 1015.3 |
| 20260903073503 | 78 | 188 | 1.0 | 2.0 | 0.00 | 3.40 | 0.00 | 42 | 1015.3 |
| 20260903073003 | 78 | 183 | 1.0 | 2.0 | 0.00 | 3.40 | 0.00 | 42 | 1015.3 |
| 20260903072503 | 78 | 158 | 1.0 | 4.0 | 0.00 | 3.40 | 0.00 | 42 | 1015.3 |
| 20260903072003 | 78 | 159 | 1.0 | 4.0 | 0.00 | 3.40 | 0.00 | 42 | 1015.4 |
| 20260903071503 | 78 | 148 | 1.0 | 2.0 | 0.00 | 3.40 | 0.00 | 42 | 1015.3 |
| 20260903071024 | 78 | 132 | 1.0 | 2.0 | 0.00 | 3.40 | 0.00 | 42 | 1015.5 |
| 20260903070524 | 78 | 149 | 1.0 | 2.0 | 0.00 | 3.40 | 0.00 | 42 | 1015.5 |
| 20260903070003 | 78 | 158 | 1.0 | 4.0 | 0.00 | 3.40 | 0.00 | 42 | 1015.6 |
| 20260903065503 | 78 | 156 | 1.0 | 4.0 | 0.00 | 3.40 | 0.00 | 42 | 1015.7 |
| 20260903065003 | 77 | 136 | 0.0 | 1.0 | 0.00 | 3.40 | 0.00 | 42 | 1015.8 |
| 20260903064503 | 77 | 136 | 0.0 | 2.0 | 0.00 | 3.40 | 0.00 | 42 | 1015.7 |
| 20260903064003 | 77 | 136 | 1.0 | 2.0 | 0.00 | 3.40 | 0.00 | 42 | 1015.8 |
| 20260903063504 | 76 | 135 | 1.0 | 2.0 | 0.00 | 3.40 | 0.00 | 42 | 1015.7 |
| 20260903063003 | 76 | 134 | 0.0 | 1.0 | 0.00 | 3.40 | 0.00 | 42 | 1015.6 |
| 20260903062503 | 76 | 134 | 0.0 | 1.0 | 0.00 | 3.40 | 0.00 | 42 | 1015.6 |
| 20260903062003 | 76 | 134 | 0.0 | 1.0 | 0.00 | 3.40 | 0.00 | 42 | 1015.6 |
| 20260903061503 | 76 | 134 | 0.0 | 1.0 | 0.00 | 3.40 | 0.00 | 43 | 1015.6 |
| 20260903061003 | 76 | 134 | 0.0 | 1.0 | 0.00 | 3.40 | 0.00 | 43 | 1015.6 |
| 20260903060503 | 76 | 134 | 0.0 | 1.0 | 0.00 | 3.41 | 0.00 | 43 | 1015.6 |
| 20260903060024 | 76 | 134 | 0.0 | 1.0 | 0.00 | 3.41 | 0.00 | 43 | 1015.7 |
| 20260903055503 | 76 | 134 | 0.0 | 1.0 | 0.00 | 3.41 | 0.00 | 43 | 1015.8 |
| 20260903055003 | 76 | 134 | 0.0 | 1.0 | 0.00 | 3.41 | 0.00 | 43 | 1015.9 |
| 20260903054503 | 76 | 135 | 0.0 | 1.0 | 0.00 | 3.41 | 0.00 | 43 | 1015.8 |
| 20260903054024 | 76 | 0 | 0.0 | 0.0 | 0.00 | 3.42 | 0.00 | 43 | 1016.0 |
| 20260903053503 | 76 | 0 | 0.0 | 0.0 | 0.00 | 3.42 | 0.00 | 43 | 1016.0 |
| 20260903053003 | 76 | 163 | 0.0 | 1.0 | 0.00 | 3.42 | 0.00 | 43 | 1016.0 |
| 20260903052524 | 76 | 163 | 0.0 | 1.0 | 0.00 | 3.43 | 0.00 | 43 | 1015.9 |
| 20260903052003 | 76 | 0 | 0.0 | 0.0 | 0.00 | 3.44 | 0.00 | 43 | 1015.9 |
| 20260903051503 | 76 | 0 | 0.0 | 0.0 | 0.00 | 3.45 | 0.00 | 43 | 1015.8 |
| 20260903051003 | 76 | 0 | 0.0 | 0.0 | 0.00 | 3.45 | 0.00 | 43 | 1015.8 |
| 20260903050503 | 76 | 163 | 0.0 | 1.0 | 0.00 | 3.46 | 0.00 | 43 | 1015.8 |
| 20260903050003 | 76 | 163 | 0.0 | 1.0 | 0.00 | 3.46 | 0.00 | 43 | 1015.7 |
| 20260903045503 | 76 | 162 | 0.0 | 2.0 | 0.00 | 3.46 | 3.46 | 43 | 1015.8 |
| 20260903045024 | 76 | 158 | 0.0 | 3.0 | 0.00 | 3.46 | 3.46 | 43 | 1015.7 |
| 20260903044503 | 76 | 161 | 1.0 | 3.0 | 0.01 | 3.46 | 3.46 | 43 | 1015.7 |
| 20260903044003 | 76 | 164 | 1.0 | 4.0 | 0.01 | 3.46 | 3.46 | 43 | 1015.6 |
| 20260903043524 | 76 | 162 | 2.0 | 4.0 | 0.01 | 3.46 | 3.46 | 43 | 1015.6 |
| 20260903043003 | 76 | 163 | 2.0 | 4.0 | 0.01 | 3.46 | 3.46 | 43 | 1015.8 |
| 20260903042503 | 76 | 174 | 1.0 | 4.0 | 0.01 | 3.46 | 3.46 | 43 | 1015.8 |
| 20260903042003 | 76 | 192 | 1.0 | 4.0 | 0.02 | 3.46 | 3.46 | 43 | 1015.8 |
| 20260903041503 | 76 | 186 | 1.0 | 4.0 | 0.02 | 3.46 | 3.46 | 43 | 1015.8 |
| 20260903041003 | 76 | 175 | 1.0 | 3.0 | 0.03 | 3.46 | 3.46 | 43 | 1015.7 |
| 20260903040503 | 76 | 168 | 1.0 | 3.0 | 0.05 | 3.46 | 3.46 | 43 | 1015.8 |
| 20260903040003 | 76 | 160 | 1.0 | 3.0 | 0.05 | 3.46 | 3.46 | 43 | 1015.7 |
| 20260903035503 | 76 | 162 | 1.0 | 3.0 | 0.06 | 3.46 | 3.46 | 43 | 1015.8 |
| 20260903035003 | 76 | 165 | 1.0 | 3.0 | 0.07 | 3.46 | 3.46 | 43 | 1015.7 |
| 20260903034503 | 76 | 152 | 1.0 | 3.0 | 0.07 | 3.45 | 3.45 | 43 | 1015.8 |
| 20260903034024 | 76 | 143 | 1.0 | 2.0 | 0.07 | 3.45 | 3.45 | 43 | 1015.8 |
| 20260903033503 | 75 | 152 | 0.0 | 2.0 | 0.08 | 3.45 | 3.45 | 43 | 1015.8 |
| 20260903033003 | 75 | 152 | 0.0 | 2.0 | 0.09 | 3.45 | 3.45 | 43 | 1016.0 |
| 20260903032503 | 75 | 152 | 1.0 | 2.0 | 0.10 | 3.45 | 3.45 | 43 | 1016.1 |
| 20260903032003 | 75 | 155 | 1.0 | 3.0 | 0.10 | 3.44 | 3.44 | 43 | 1016.2 |
| 20260903031503 | 75 | 161 | 0.0 | 3.0 | 0.11 | 3.44 | 3.44 | 43 | 1016.3 |
| 20260903031003 | 75 | 153 | 1.0 | 2.0 | 0.10 | 3.43 | 3.43 | 43 | 1016.3 |
| 20260903030503 | 75 | 154 | 1.0 | 3.0 | 0.08 | 3.41 | 3.41 | 43 | 1016.4 |
| 20260903030003 | 75 | 167 | 1.0 | 4.0 | 0.09 | 3.41 | 3.41 | 43 | 1016.5 |
| 20260903025503 | 75 | 163 | 1.0 | 6.0 | 0.08 | 3.40 | 3.40 | 43 | 1016.5 |
| 20260903025003 | 75 | 161 | 2.0 | 6.0 | 0.07 | 3.39 | 3.39 | 43 | 1016.6 |
| 20260903024524 | 75 | 161 | 1.0 | 3.0 | 0.07 | 3.38 | 3.38 | 43 | 1016.5 |
| 20260903024024 | 75 | 155 | 1.0 | 2.0 | 0.08 | 3.38 | 3.38 | 43 | 1016.5 |
| 20260903023503 | 75 | 153 | 1.0 | 3.0 | 0.07 | 3.37 | 3.37 | 43 | 1016.4 |
| 20260903023024 | 75 | 131 | 1.0 | 3.0 | 0.07 | 3.36 | 3.36 | 43 | 1016.5 |
| 20260903022503 | 75 | 130 | 1.0 | 3.0 | 0.07 | 3.35 | 3.35 | 43 | 1016.4 |
| 20260903022003 | 75 | 139 | 1.0 | 3.0 | 0.07 | 3.34 | 3.34 | 43 | 1016.3 |
| 20260903021503 | 74 | 124 | 1.0 | 3.0 | 0.07 | 3.33 | 3.33 | 43 | 1016.2 |
| 20260903021003 | 74 | 115 | 1.0 | 3.0 | 0.08 | 3.33 | 3.33 | 43 | 1015.9 |
| 20260903020524 | 74 | 116 | 1.0 | 3.0 | 0.09 | 3.33 | 3.33 | 43 | 1015.8 |
| 20260903020003 | 74 | 96 | 1.0 | 2.0 | 0.09 | 3.32 | 3.32 | 43 | 1015.8 |
| 20260903015503 | 74 | 83 | 1.0 | 2.0 | 0.10 | 3.32 | 3.32 | 43 | 1015.7 |
| 20260903015003 | 74 | 78 | 1.0 | 3.0 | 0.10 | 3.32 | 3.32 | 43 | 1015.6 |
| 20260903014503 | 74 | 82 | 0.0 | 3.0 | 0.10 | 3.31 | 3.31 | 43 | 1015.6 |
| 20260903014003 | 74 | 100 | 0.0 | 3.0 | 0.09 | 3.30 | 3.30 | 43 | 1015.6 |
| 20260903013503 | 74 | 127 | 1.0 | 2.0 | 0.10 | 3.30 | 3.30 | 43 | 1015.5 |
| 20260903013024 | 74 | 127 | 1.0 | 2.0 | 0.09 | 3.29 | 3.29 | 43 | 1015.5 |
| 20260903012503 | 74 | 127 | 1.0 | 2.0 | 0.09 | 3.28 | 3.28 | 43 | 1015.7 |
| 20260903012024 | 74 | 127 | 0.0 | 2.0 | 0.09 | 3.27 | 3.27 | 43 | 1015.7 |
| 20260903011524 | 74 | 127 | 0.0 | 2.0 | 0.09 | 3.26 | 3.26 | 43 | 1015.6 |
| 20260903011004 | 74 | 127 | 0.0 | 2.0 | 0.08 | 3.25 | 3.25 | 43 | 1015.6 |
| 20260903010504 | 74 | 127 | 0.0 | 2.0 | 0.08 | 3.24 | 3.24 | 43 | 1015.5 |
| 20260903010004 | 74 | 127 | 0.0 | 2.0 | 0.07 | 3.23 | 3.23 | 43 | 1015.3 |
| 20260903005525 | 74 | 127 | 0.0 | 2.0 | 0.07 | 3.22 | 3.22 | 43 | 1015.3 |
| 20260903005004 | 74 | 0 | 0.0 | 0.0 | 0.08 | 3.22 | 3.22 | 43 | 1015.5 |
| 20260903004504 | 74 | 0 | 0.0 | 0.0 | 0.07 | 3.21 | 3.21 | 43 | 1015.4 |
| 20260903004004 | 74 | 127 | 0.0 | 1.0 | 0.08 | 3.21 | 3.21 | 43 | 1015.3 |
| 20260903003504 | 74 | 127 | 0.0 | 1.0 | 0.08 | 3.20 | 3.20 | 43 | 1015.2 |
| 20260903003004 | 74 | 127 | 0.0 | 1.0 | 0.09 | 3.20 | 3.20 | 43 | 1015.3 |
| 20260903002504 | 74 | 127 | 0.0 | 1.0 | 0.08 | 3.19 | 3.19 | 43 | 1015.3 |
| 20260903002004 | 74 | 0 | 0.0 | 0.0 | 0.07 | 3.18 | 3.18 | 43 | 1015.4 |
| 20260903001504 | 74 | 127 | 0.0 | 1.0 | 0.07 | 3.17 | 3.17 | 43 | 1015.4 |
| 20260903001004 | 74 | 127 | 0.0 | 2.0 | 0.08 | 3.17 | 3.17 | 43 | 1015.6 |
| 20260903000504 | 74 | 127 | 0.0 | 2.0 | 0.07 | 3.16 | 3.16 | 43 | 1015.6 |
| 20260903000025 | 74 | 132 | 1.0 | 2.0 | 0.08 | 3.16 | 3.16 | 43 | 1015.8 |
| 20260902235525 | 74 | 148 | 0.0 | 2.0 | 0.08 | 3.15 | 3.15 | 43 | 1015.8 |
| 20260902235025 | 74 | 152 | 0.0 | 1.0 | 0.08 | 3.14 | 3.15 | 43 | 1015.9 |
| 20260902234504 | 74 | 97 | 0.0 | 2.0 | 0.09 | 3.14 | 3.14 | 43 | 1015.8 |
| 20260902234004 | 74 | 109 | 1.0 | 3.0 | 0.10 | 3.13 | 3.13 | 43 | 1015.8 |
| 20260902233504 | 74 | 147 | 1.0 | 4.0 | 0.11 | 3.12 | 3.12 | 43 | 1015.9 |
| 20260902233004 | 74 | 165 | 2.0 | 4.0 | 0.12 | 3.11 | 3.11 | 43 | 1015.8 |
| 20260902232525 | 74 | 169 | 2.0 | 4.0 | 0.33 | 3.11 | 3.11 | 43 | 1015.6 |
| 20260902232004 | 74 | 181 | 1.0 | 4.0 | 0.72 | 3.11 | 3.11 | 43 | 1015.3 |
| 20260902231504 | 74 | 211 | 1.0 | 4.0 | 0.79 | 3.10 | 3.10 | 43 | 1015.1 |
| 20260902231025 | 74 | 241 | 1.0 | 3.0 | 0.80 | 3.09 | 3.09 | 43 | 1015.0 |
| 20260902230504 | 74 | 240 | 1.0 | 3.0 | 0.80 | 3.09 | 3.09 | 43 | 1015.0 |
| 20260902230004 | 74 | 189 | 1.0 | 4.0 | 0.80 | 3.08 | 3.08 | 43 | 1015.4 |
| 20260902225504 | 75 | 169 | 2.0 | 5.0 | 0.80 | 3.07 | 3.07 | 43 | 1015.5 |
| 20260902225004 | 74 | 160 | 2.0 | 5.0 | 0.82 | 3.06 | 3.06 | 43 | 1015.7 |
| 20260902224504 | 74 | 146 | 1.0 | 4.0 | 0.81 | 3.05 | 3.05 | 43 | 1015.6 |
| 20260902224004 | 74 | 145 | 1.0 | 3.0 | 0.80 | 3.03 | 3.03 | 43 | 1015.5 |
| 20260902223504 | 74 | 164 | 2.0 | 3.0 | 0.78 | 3.01 | 3.01 | 43 | 1015.5 |
| 20260902223004 | 74 | 188 | 3.0 | 5.0 | 0.76 | 2.99 | 2.99 | 43 | 1015.6 |
| 20260902222504 | 74 | 216 | 4.0 | 8.0 | 0.55 | 2.78 | 2.78 | 43 | 1015.4 |
| 20260902222004 | 75 | 251 | 3.0 | 8.0 | 0.16 | 2.39 | 2.39 | 43 | 1015.9 |
| 20260902221504 | 74 | 333 | 3.0 | 6.0 | 0.09 | 2.31 | 2.31 | 43 | 1015.5 |
| 20260902221004 | 75 | 340 | 2.0 | 3.0 | 0.07 | 2.29 | 2.29 | 44 | 1015.1 |
| 20260902220504 | 75 | 350 | 1.0 | 4.0 | 0.08 | 2.29 | 2.29 | 44 | 1015.3 |
| 20260902220004 | 75 | 279 | 2.0 | 4.0 | 0.09 | 2.28 | 2.28 | 43 | 1015.1 |
| 20260902215504 | 76 | 221 | 3.0 | 8.0 | 0.10 | 2.27 | 2.27 | 43 | 1015.2 |
| 20260902215004 | 77 | 232 | 3.0 | 8.0 | 0.11 | 2.24 | 2.24 | 42 | 1015.4 |
| 20260902214504 | 78 | 243 | 1.0 | 7.0 | 0.29 | 2.24 | 2.24 | 42 | 1015.3 |
| 20260902214004 | 78 | 101 | 1.0 | 2.0 | 0.39 | 2.23 | 2.23 | 42 | 1014.7 |
| 20260902213504 | 78 | 108 | 1.0 | 2.0 | 0.44 | 2.23 | 2.23 | 42 | 1014.9 |
| 20260902213004 | 78 | 132 | 1.0 | 3.0 | 0.54 | 2.23 | 2.23 | 42 | 1015.0 |
| 20260902212504 | 78 | 135 | 1.0 | 3.0 | 0.63 | 2.23 | 2.23 | 42 | 1014.8 |
| 20260902212004 | 78 | 119 | 1.0 | 4.0 | 0.63 | 2.23 | 2.23 | 42 | 1014.9 |